Location: Aiyede
(8.4833°N, 4.4500°E)
Time: 09:43:58
(UTC+00:00)

Helios 1A Rocket - Pass Details

Date: 24 September 2020
Orbit: 563 x 586 km, 98.3° (Epoch: 21 October)

Event Time Altitude Azimuth Distance (km) Brightness Sun altitude
Rises 18:16:09 0° 165° (SSE) 2,770 6.2 -10.6°
Reaches altitude 10° 18:18:17 10° 163° (SSE) 1,876 5.4 -11.1°
Maximum altitude 18:22:20 76° 78° (ENE) 596 2.8 -12.1°
Drops below altitude 10° 18:26:25 10° 352° (N) 1,887 5.7 -13.1°
Sets 18:28:35 0° 351° (N) 2,788 6.6 -13.6°
